W5MAI Weather Reports


Display with metric or nautical units.
time (UTC)temp
F
wind
direction
speed
MPH
gust
MPH
rain 1hr
in
rain 24hr
in
rain mn
in
humidity
%
barometer
mb
20260901224412 96 98 4.0 9.0 0.00 0.00 0.00 42 1014.7
20260901223403 97 125 5.0 8.0 0.00 0.00 0.00 42 1014.8
20260901222353 96 153 2.0 8.0 0.00 0.00 0.00 43 1014.7
20260901221342 97 327 2.0 7.0 0.00 0.00 0.00 42 1014.8
20260901220347 97 162 4.0 8.0 0.00 0.00 0.00 42 1014.9
20260901215355 97 47 3.0 6.0 0.00 0.00 0.00 42 1014.9
20260901214347 96 143 2.0 6.0 0.00 0.00 0.00 43 1014.9
20260901213327 95 120 4.0 9.0 0.00 0.00 0.00 43 1015.1
20260901212335 95 96 4.0 11.0 0.00 0.00 0.00 43 1015.1
20260901211343 96 53 1.0 5.0 0.00 0.00 0.00 45 1015.2
20260901210329 94 207 2.0 8.0 0.00 0.00 0.00 45 1015.3
20260901205338 95 84 3.0 4.0 0.00 0.00 0.00 45 1015.5
20260901204331 96 103 5.0 11.0 0.00 0.00 0.00 44 1015.6
20260901202337 96 272 1.0 6.0 0.00 0.00 0.00 46 1015.9
20260901201345 96 223 5.0 9.0 0.00 0.00 0.00 44 1016.2
20260901200349 95 45 1.0 7.0 0.00 0.00 0.00 46 1016.2
20260901195322 94 131 5.0 9.0 0.00 0.00 0.00 46 1016.4
20260901194412 95 222 2.0 8.0 0.00 0.00 0.00 45 1016.4
20260901193419 94 219 4.0 12.0 0.00 0.00 0.00 46 1016.6
20260901192325 93 233 3.0 6.0 0.00 0.00 0.00 45 1016.8
20260901191334 93 146 1.0 8.0 0.00 0.00 0.00 46 1016.8
20260901190327 94 181 5.0 8.0 0.00 0.00 0.00 46 1017.0
20260901185333 93 5 2.0 9.0 0.00 0.00 0.00 47 1017.1
20260901184343 94 158 2.0 8.0 0.00 0.00 0.00 46 1017.2
20260901183333 93 200 5.0 11.0 0.00 0.00 0.00 47 1017.4
20260901182351 93 162 2.0 8.0 0.00 0.00 0.00 47 1017.6
20260901181402 93 175 2.0 4.0 0.00 0.00 0.00 48 1017.7
20260901180351 93 139 4.0 9.0 0.00 0.00 0.00 47 1018.0
20260901175359 92 159 3.0 8.0 0.00 0.00 0.00 50 1018.1
20260901174408 92 150 2.0 8.0 0.00 0.00 0.00 50 1018.3
20260901173412 91 74 3.0 8.0 0.00 0.00 0.00 52 1018.4
20260901172401 91 51 2.0 7.0 0.00 0.00 0.00 53 1018.5
20260901171354 91 31 2.0 9.0 0.00 0.00 0.00 52 1018.6
20260901170402 91 219 1.0 4.0 0.00 0.00 0.00 53 1018.7
20260901165343 90 190 2.0 7.0 0.00 0.00 0.00 54 1018.7
20260901164334 90 186 3.0 7.0 0.00 0.00 0.00 53 1018.8
20260901163352 89 207 1.0 5.0 0.00 0.00 0.00 56 1018.8
20260901162332 89 189 2.0 5.0 0.00 0.00 0.00 58 1018.9
20260901161346 89 196 2.0 7.0 0.00 0.00 0.00 56 1019.0
20260901160354 88 163 0.0 4.0 0.00 0.00 0.00 59 1019.1
20260901155404 87 315 0.0 6.0 0.00 0.00 0.00 63 1019.0
20260901154411 87 186 3.0 6.0 0.00 0.00 0.00 62 1019.0
20260901153404 87 104 2.0 7.0 0.00 0.00 0.00 64 1018.9
20260901152352 85 315 0.0 1.0 0.00 0.00 0.00 71 1019.0
20260901151340 84 256 2.0 4.0 0.00 0.00 0.00 73 1019.0
20260901150348 84 160 0.0 2.0 0.00 0.00 0.00 73 1018.9
20260901145337 84 160 1.0 3.0 0.00 0.00 0.00 74 1018.9
20260901144407 84 261 0.0 3.0 0.00 0.00 0.00 75 1019.0
20260901143359 84 261 0.0 2.0 0.00 0.00 0.00 75 1019.1
20260901142409 83 339 0.0 0.0 0.00 0.00 0.00 78 1019.0
20260901141357 82 339 0.0 0.0 0.00 0.00 0.00 80 1019.2
20260901140343 81 334 0.0 0.0 0.00 0.00 0.00 82 1019.1
20260901135330 80 76 0.0 0.0 0.00 0.00 0.00 83 1019.3
20260901134421 79 76 0.0 1.0 0.00 0.00 0.00 84 1019.1
20260901133329 77 90 0.0 1.0 0.00 0.00 0.00 86 1019.1
20260901131419 75 198 0.0 0.0 0.00 0.00 0.00 91 1019.0
20260901130357 73 198 0.0 1.0 0.00 0.00 0.00 93 1018.8
20260901125343 72 163 0.0 0.0 0.00 0.00 0.00 93 1018.7
20260901124412 72 163 0.0 0.0 0.00 0.00 0.00 93 1018.5
20260901123350 71 163 0.0 0.0 0.00 0.00 0.00 92 1018.4
20260901122332 72 163 0.0 0.0 0.00 0.00 0.00 92 1018.3
20260901121412 72 163 0.0 0.0 0.00 0.00 0.00 92 1018.2
20260901120417 72 163 0.0 0.0 0.00 0.00 0.00 91 1018.1
20260901115408 72 163 0.0 0.0 0.00 0.00 0.00 91 1018.1
20260901114357 72 163 0.0 0.0 0.00 0.00 0.00 91 1018.2
20260901113345 72 163 0.0 0.0 0.00 0.00 0.00 91 1018.2
20260901112352 72 163 0.0 0.0 0.00 0.00 0.00 91 1018.2
20260901111412 73 163 0.0 0.0 0.00 0.00 0.00 91 1018.3
20260901110357 73 163 0.0 1.0 0.00 0.00 0.00 91 1018.2
20260901105345 73 163 0.0 0.0 0.00 0.00 0.00 90 1018.3
20260901104420 73 163 0.0 0.0 0.00 0.00 0.00 90 1018.3
20260901103355 73 163 0.0 0.0 0.00 0.00 0.00 90 1018.2
20260901030344 87 157 3.0 6.0 0.00 0.00 0.00 61 1016.7
20260901025411 87 159 2.0 5.0 0.00 0.00 0.00 60 1016.6
20260901024324 87 146 3.0 5.0 0.00 0.00 0.00 59 1016.4
20260901022354 88 176 4.0 8.0 0.00 0.00 0.00 58 1016.0
20260901021422 88 169 3.0 7.0 0.00 0.00 0.00 58 1015.9
20260901020340 88 147 3.0 7.0 0.00 0.00 0.00 57 1015.8
20260901015420 88 167 3.0 7.0 0.00 0.00 0.00 56 1015.6
20260901014339 88 152 3.0 5.0 0.00 0.00 0.00 54 1015.6
20260901013413 87 146 3.0 8.0 0.00 0.00 0.00 54 1015.6
20260901012343 87 103 0.0 0.0 0.00 0.00 0.00 56 1015.4
20260901011408 89 103 0.0 0.0 0.00 0.00 0.00 55 1015.2
20260901010334 91 103 0.0 0.0 0.00 0.00 0.00 52 1015.1
20260901005344 91 103 0.0 1.0 0.00 0.00 0.00 49 1015.2
20260901004358 92 96 0.0 1.0 0.00 0.00 0.00 49 1015.1
20260901003420 93 96 0.0 2.0 0.00 0.00 0.00 47 1015.1
20260901002340 93 139 0.0 3.0 0.00 0.00 0.00 45 1015.0
20260901001323 94 154 1.0 3.0 0.00 0.00 0.00 45 1015.0
20260901000336 93 119 1.0 6.0 0.00 0.00 0.00 45 1014.9
20260831235402 93 149 0.0 3.0 0.00 0.00 0.00 46 1014.9
20260831234327 93 134 1.0 7.0 0.00 0.00 0.00 45 1014.8
20260831233341 94 153 3.0 9.0 0.00 0.00 0.00 44 1014.9
20260831232404 94 139 4.0 7.0 0.00 0.00 0.00 43 1014.9
20260831231326 94 75 1.0 5.0 0.00 0.00 0.00 45 1014.9
20260831230346 93 86 1.0 6.0 0.00 0.00 0.00 46 1015.0
20260831225419 94 109 3.0 9.0 0.00 0.00 0.00 44 1015.1